Location: Petruro
(41.0333°N, 14.7833°E)
Time: 04:34:32
(UTC+00:00)

USA 229 - Visible Passes

Search period start: 17 October 2021 00:00
Search period end: 27 October 2021 00:00
Orbit: 949 x 1263 km, 63.4° (Epoch: 15 October)

Date Brightness Start Highest point End Pass type
(mag) Time Alt. Az. Time Alt. Az. Time Alt. Az.
17 Oct 6.0 01:25:39 12° N 01:29:30 18° NNE 01:34:27 10° ENE visible
17 Oct 4.5 03:14:52 10° NNW 03:22:06 56° NE 03:29:45 10° SE visible
17 Oct 4.7 18:57:46 10° SSW 19:00:35 29° SSW 19:00:35 29° SSW visible
18 Oct 6.1 00:42:49 14° N 00:43:53 14° NNE 00:47:41 10° NE visible
18 Oct 5.1 02:30:19 10° NNW 02:37:02 40° NE 02:44:12 10° ESE visible
18 Oct 4.1 04:21:02 10° NW 04:28:16 54° WSW 04:35:50 10° SSE visible
18 Oct 3.8 18:13:29 10° S 18:18:41 44° SE 18:18:41 44° SE visible
18 Oct 5.7 20:04:31 10° WSW 20:06:15 18° W 20:06:15 18° W visible
19 Oct 6.4 00:00:10 11° NNE 00:00:10 11° NNE 00:00:47 10° NE visible
19 Oct 5.5 01:47:41 18° N 01:51:47 29° NE 01:58:16 10° E visible
19 Oct 3.9 03:36:05 10° NW 03:43:32 81° WSW 03:51:22 10° SSE visible
19 Oct 4.3 17:29:46 10° SSE 17:34:55 27° ESE 17:36:43 24° E visible
19 Oct 4.2 19:19:09 10° SW 19:24:15 50° W 19:24:15 50° W visible
20 Oct 5.8 01:05:13 21° NNE 01:06:24 21° NNE 01:11:58 10° E visible
20 Oct 4.1 02:52:44 17° NNW 02:58:40 70° NE 03:06:28 10° SE visible
20 Oct 4.9 04:43:07 10° WNW 04:49:09 27° WSW 04:55:24 10° SSW visible
20 Oct 4.9 16:47:00 10° SE 16:50:35 16° ESE 16:54:16 10° ENE visible
20 Oct 3.5 18:34:09 10° SW 18:40:28 85° WNW 18:42:08 54° NNE visible
20 Oct 5.9 20:27:29 10° W 20:29:39 17° WNW 20:29:39 17° WNW visible
21 Oct 6.2 00:22:59 15° NE 00:22:59 15° NE 00:25:21 10° ENE visible
21 Oct 4.6 02:10:31 32° N 02:13:41 49° NE 02:21:09 10° ESE visible
21 Oct 4.3 03:58:03 11° NW 04:04:38 42° WSW 04:11:51 10° S visible
21 Oct 3.5 17:49:34 10° SSW 17:55:44 61° ESE 17:59:49 24° NE visible
21 Oct 5.1 19:41:31 10° W 19:47:07 30° NW 19:47:20 30° NW visible
22 Oct 5.2 01:28:29 35° NE 01:28:32 35° NE 01:35:27 10° ESE visible
22 Oct 3.9 03:16:02 30° NW 03:19:58 64° WSW 03:27:41 10° SSE visible
22 Oct 4.1 17:05:30 10° S 17:11:11 37° ESE 17:17:10 10° NE visible
22 Oct 4.5 18:55:54 10° WSW 19:01:57 44° NW 19:04:48 29° N visible
22 Oct 6.2 20:51:20 10° NW 20:52:18 12° NW 20:52:18 12° NW visible
23 Oct 6.0 00:46:36 19° ENE 00:46:36 19° ENE 00:49:22 10° E visible
23 Oct 3.8 02:34:09 70° NNW 02:35:10 87° NE 02:43:02 10° SE visible
23 Oct 5.1 04:21:42 14° WNW 04:25:24 20° WSW 04:30:42 10° SSW visible
23 Oct 3.8 18:10:40 10° SW 18:16:57 66° NW 18:22:06 18° NNE visible
23 Oct 5.7 20:04:49 10° WNW 20:09:18 19° NNW 20:09:34 19° NNW visible
24 Oct 4.7 01:52:22 46° ESE 01:52:22 46° ESE 01:57:57 10° SE visible
24 Oct 4.5 03:39:55 31° W 03:40:56 32° WSW 03:47:39 10° S visible
24 Oct 3.5 17:25:51 10° SSW 17:32:08 81° ESE 17:38:53 10° NE visible
24 Oct 5.4 19:18:38 10° W 19:23:52 25° NW 19:26:42 19° N visible
25 Oct 6.0 01:10:37 18° ESE 01:10:37 18° ESE 01:12:29 10° ESE visible
25 Oct 4.4 02:58:10 42° SSW 02:58:10 42° SSW 03:03:50 10° S visible
25 Oct 3.8 16:41:27 10° S 16:47:29 50° ESE 16:53:52 10° NE visible
25 Oct 4.9 18:32:48 10° WSW 18:38:36 35° NW 18:43:41 15° NNE visible
25 Oct 6.2 20:28:55 10° NW 20:31:09 13° NNW 20:31:09 13° NNW visible
26 Oct 5.3 02:16:23 26° SSE 02:16:23 26° SSE 02:19:27 10° SSE visible
26 Oct 5.6 04:03:56 13° SW 04:03:56 13° SW 04:05:26 10° SW visible
26 Oct 4.3 17:47:20 10° SW 17:53:30 52° NW 18:00:08 10° NNE visible
26 Oct 5.9 19:42:16 10° WNW 19:46:13 16° NNW 19:48:01 15° N visible
